• en Belgique
  • Liste des pays
  • À 7 jours
  • Température de l'eau
  • Carte satellitaire
  • Carte météo
  • Widgets météo
  • user-avatar
    Se connecter

    Météo par heure à Victoria

    Ce jour, 23 Janvier, Mardi

    Heure Température Précipitation Vent Pression Humidité
    00:00 +22°C° 0 mm 3 m/s 744 mmHg 69%
    01:00 +21°C° 0 mm 3 m/s 744 mmHg 73%
    02:00 +21°C° 0 mm 3 m/s 744 mmHg 74%
    03:00 +20°C° 0 mm 3 m/s 744 mmHg 76%
    04:00 +19°C° 0 mm 4 m/s 744 mmHg 77%
    05:00 +20°C° 0 mm 4 m/s 744 mmHg 75%
    06:00 +21°C° 0 mm 3 m/s 745 mmHg 72%
    07:00 +21°C° 0 mm 3 m/s 745 mmHg 70%
    08:00 +25°C° 0 mm 3 m/s 745 mmHg 60%
    09:00 +28°C° 0 mm 3 m/s 745 mmHg 50%
    10:00 +31°C° 0 mm 3 m/s 745 mmHg 41%
    11:00 +33°C° 0 mm 3 m/s 745 mmHg 37%
    12:00 +35°C° 0 mm 3 m/s 745 mmHg 33%
    13:00 +37°C° 0 mm 3 m/s 744 mmHg 29%
    14:00 +37°C° 0 mm 3 m/s 744 mmHg 28%
    15:00 +37°C° 0 mm 4 m/s 743 mmHg 26%
    16:00 +38°C° 0 mm 4 m/s 743 mmHg 25%
    17:00 +36°C° 0 mm 4 m/s 743 mmHg 29%
    18:00 +34°C° 0 mm 5 m/s 743 mmHg 32%
    19:00 +32°C° 0 mm 5 m/s 743 mmHg 35%
    20:00 +29°C° 0 mm 5 m/s 744 mmHg 40%
    21:00 +27°C° 0 mm 5 m/s 744 mmHg 45%
    22:00 +25°C° 0 mm 5 m/s 744 mmHg 49%
    23:00 +23°C° 0 mm 5 m/s 744 mmHg 53%

    Demain, 24 Janvier, Mercredi

    Heure Température Précipitation Vent Pression Humidité
    00:00 +22°C° 0 mm 4 m/s 744 mmHg 57%
    01:00 +21°C° 0 mm 4 m/s 744 mmHg 62%
    02:00 +21°C° 0,2 mm 3 m/s 744 mmHg 66%
    03:00 +20°C° 0,2 mm 3 m/s 744 mmHg 69%
    04:00 +20°C° 0,2 mm 2 m/s 744 mmHg 73%
    05:00 +20°C° 0,1 mm 2 m/s 744 mmHg 71%
    06:00 +21°C° 0,1 mm 2 m/s 744 mmHg 69%
    07:00 +23°C° 0,1 mm 2 m/s 745 mmHg 67%
    08:00 +26°C° 0 mm 2 m/s 745 mmHg 59%
    09:00 +29°C° 0 mm 2 m/s 745 mmHg 50%
    10:00 +32°C° 0 mm 2 m/s 745 mmHg 42%
    11:00 +35°C° 0 mm 2 m/s 744 mmHg 37%
    12:00 +37°C° 0 mm 2 m/s 744 mmHg 31%
    13:00 +39°C° 0 mm 2 m/s 744 mmHg 26%
    14:00 +39°C° 0 mm 3 m/s 743 mmHg 25%
    15:00 +40°C° 0 mm 3 m/s 743 mmHg 23%
    16:00 +41°C° 0 mm 4 m/s 742 mmHg 22%
    17:00 +38°C° 0,1 mm 4 m/s 742 mmHg 26%
    18:00 +36°C° 0,1 mm 4 m/s 742 mmHg 31%
    19:00 +34°C° 0,1 mm 4 m/s 742 mmHg 35%
    20:00 +32°C° 0,3 mm 4 m/s 743 mmHg 43%
    21:00 +28°C° 0,3 mm 3 m/s 744 mmHg 51%
    22:00 +26°C° 0,3 mm 3 m/s 744 mmHg 59%
    23:00 +25°C° 0,4 mm 3 m/s 744 mmHg 63%

    Après-demain, 25 Janvier, Jeudi

    Heure Température Précipitation Vent Pression Humidité
    00:00 +24°C° 0,4 mm 3 m/s 744 mmHg 68%
    01:00 +24°C° 0,4 mm 3 m/s 744 mmHg 73%
    02:00 +24°C° 0 mm 3 m/s 744 mmHg 73%
    03:00 +24°C° 0 mm 3 m/s 744 mmHg 74%
    04:00 +24°C° 0 mm 3 m/s 743 mmHg 74%
    05:00 +24°C° 0,1 mm 3 m/s 744 mmHg 73%
    06:00 +25°C° 0,1 mm 3 m/s 744 mmHg 71%
    07:00 +25°C° 0,1 mm 3 m/s 744 mmHg 70%
    08:00 +27°C° 0,2 mm 3 m/s 744 mmHg 61%
    09:00 +30°C° 0,2 mm 4 m/s 744 mmHg 53%
    10:00 +33°C° 0,2 mm 4 m/s 744 mmHg 45%
    11:00 +35°C° 0 mm 4 m/s 744 mmHg 40%
    12:00 +37°C° 0 mm 4 m/s 743 mmHg 36%
    13:00 +40°C° 0 mm 4 m/s 742 mmHg 31%
    14:00 +39°C° 0 mm 3 m/s 742 mmHg 29%
    15:00 +39°C° 0 mm 3 m/s 741 mmHg 28%
    16:00 +39°C° 0 mm 2 m/s 741 mmHg 27%
    17:00 +38°C° 0 mm 2 m/s 741 mmHg 29%
    18:00 +37°C° 0 mm 2 m/s 741 mmHg 31%
    19:00 +37°C° 0 mm 2 m/s 741 mmHg 33%
    20:00 +35°C° 0 mm 3 m/s 741 mmHg 39%
    21:00 +33°C° 0 mm 4 m/s 741 mmHg 45%
    22:00 +30°C° 0 mm 4 m/s 742 mmHg 50%
    23:00 +29°C° 0,1 mm 4 m/s 742 mmHg 54%

    26 Janvier, Vendredi

    Heure Température Précipitation Vent Pression Humidité
    00:00 +28°C° 0,1 mm 4 m/s 742 mmHg 58%
    01:00 +27°C° 0,1 mm 4 m/s 742 mmHg 62%
    02:00 +27°C° 0,1 mm 4 m/s 742 mmHg 64%
    03:00 +27°C° 0,1 mm 4 m/s 742 mmHg 65%
    04:00 +26°C° 0,1 mm 4 m/s 742 mmHg 67%
    05:00 +27°C° 0 mm 4 m/s 743 mmHg 65%
    06:00 +28°C° 0 mm 5 m/s 743 mmHg 62%
    07:00 +28°C° 0 mm 5 m/s 743 mmHg 60%
    08:00 +32°C° 0 mm 5 m/s 744 mmHg 53%
    09:00 +34°C° 0 mm 5 m/s 744 mmHg 46%
    10:00 +37°C° 0 mm 4 m/s 744 mmHg 38%
    11:00 +38°C° 0 mm 4 m/s 743 mmHg 33%
    12:00 +41°C° 0 mm 4 m/s 743 mmHg 28%
    13:00 +42°C° 0 mm 3 m/s 742 mmHg 23%
    14:00 +42°C° 0 mm 3 m/s 742 mmHg 24%
    15:00 +40°C° 0 mm 2 m/s 742 mmHg 24%
    16:00 +39°C° 0 mm 2 m/s 742 mmHg 24%
    17:00 +38°C° 0 mm 3 m/s 742 mmHg 30%
    18:00 +37°C° 0 mm 3 m/s 742 mmHg 35%
    19:00 +35°C° 0 mm 4 m/s 742 mmHg 40%
    20:00 +33°C° 0 mm 4 m/s 743 mmHg 48%
    21:00 +30°C° 0 mm 4 m/s 743 mmHg 57%
    22:00 +28°C° 0 mm 4 m/s 744 mmHg 65%
    23:00 +28°C° 0 mm 4 m/s 744 mmHg 67%

    27 Janvier, Samedi

    Heure Température Précipitation Vent Pression Humidité
    00:00 +27°C° 0 mm 4 m/s 744 mmHg 69%
    01:00 +27°C° 0 mm 3 m/s 744 mmHg 71%
    02:00 +27°C° 0 mm 3 m/s 744 mmHg 69%
    03:00 +27°C° 0 mm 4 m/s 744 mmHg 68%
    04:00 +27°C° 0 mm 4 m/s 744 mmHg 66%
    05:00 +28°C° 0 mm 4 m/s 744 mmHg 63%
    06:00 +28°C° 0 mm 4 m/s 745 mmHg 60%
    07:00 +29°C° 0 mm 4 m/s 745 mmHg 57%
    08:00 +32°C° 0 mm 4 m/s 745 mmHg 50%
    09:00 +35°C° 0 mm 4 m/s 745 mmHg 43%
    10:00 +37°C° 0 mm 4 m/s 745 mmHg 37%
    11:00 +40°C° 0 mm 4 m/s 744 mmHg 34%
    12:00 +41°C° 0 mm 4 m/s 744 mmHg 30%
    13:00 +42°C° 0 mm 3 m/s 743 mmHg 27%
    14:00 +42°C° 0 mm 3 m/s 743 mmHg 27%
    15:00 +42°C° 0 mm 3 m/s 742 mmHg 26%
    16:00 +41°C° 0 mm 2 m/s 742 mmHg 26%
    17:00 +40°C° 0 mm 2 m/s 742 mmHg 28%
    18:00 +39°C° 0 mm 2 m/s 742 mmHg 31%
    19:00 +38°C° 0 mm 2 m/s 742 mmHg 33%
    20:00 +36°C° 0,1 mm 3 m/s 742 mmHg 39%
    21:00 +35°C° 0,1 mm 3 m/s 743 mmHg 44%
    22:00 +33°C° 0,1 mm 4 m/s 744 mmHg 50%
    23:00 +32°C° 0,4 mm 4 m/s 744 mmHg 54%

    28 Janvier, Dimanche

    Heure Température Précipitation Vent Pression Humidité
    00:00 +30°C° 0,4 mm 5 m/s 744 mmHg 58%
    01:00 +29°C° 0,4 mm 6 m/s 744 mmHg 62%
    02:00 +29°C° 0 mm 5 m/s 744 mmHg 64%
    03:00 +28°C° 0 mm 5 m/s 744 mmHg 66%
    04:00 +27°C° 0 mm 4 m/s 744 mmHg 67%
    05:00 +28°C° 0 mm 4 m/s 744 mmHg 66%
    06:00 +28°C° 0 mm 4 m/s 744 mmHg 65%
    07:00 +29°C° 0 mm 4 m/s 744 mmHg 64%
    08:00 +32°C° 0 mm 5 m/s 744 mmHg 57%
    09:00 +34°C° 0 mm 5 m/s 744 mmHg 50%
    10:00 +36°C° 0 mm 6 m/s 744 mmHg 44%
    11:00 +39°C° 0 mm 5 m/s 744 mmHg 39%
    12:00 +41°C° 0 mm 5 m/s 743 mmHg 35%
    13:00 +42°C° 0 mm 5 m/s 743 mmHg 30%
    14:00 +43°C° 0 mm 4 m/s 742 mmHg 29%
    15:00 +43°C° 0 mm 4 m/s 742 mmHg 27%
    16:00 +43°C° 0 mm 4 m/s 741 mmHg 25%
    17:00 +42°C° 0 mm 4 m/s 741 mmHg 27%
    18:00 +41°C° 0 mm 4 m/s 741 mmHg 29%
    19:00 +39°C° 0 mm 3 m/s 741 mmHg 31%
    20:00 +38°C° 0 mm 4 m/s 741 mmHg 34%
    21:00 +37°C° 0 mm 5 m/s 741 mmHg 36%
    22:00 +36°C° 0 mm 6 m/s 742 mmHg 39%
    23:00 +35°C° 0 mm 6 m/s 741 mmHg 42%
    Voir plus